GEFSSE_con_probscp_060.txt.gz
Probability
53 51 46 31 12 2 0 0 0 0 0 0 0 0 0 0 0 0 0 0 0 0 0 0 0 0 0 0 0 0 0 0 0 0 1 2 2 2 1 0 0 0 0
71 66 58 40 17 5 1 0 0 0 0 0 0 0 0 0 0 0 0 0 0 0 0 0 0 0 0 0 0 0 0 0 0 0 0 1 1 1 0 0 0 0 0
84 78 71 54 29 10 3 0 0 0 0 0 0 0 0 0 0 0 0 0 0 0 0 0 0 0 0 0 0 0 0 0 0 0 0 0 0 0 0 0 0 1 1
79 77 75 66 42 19 6 1 0 0 0 0 0 0 0 0 0 0 0 0 0 0 0 0 0 0 0 0 0 0 0 0 0 0 0 0 0 0 0 0 0 1 2
71 72 76 74 56 31 13 3 0 0 0 0 0 0 0 0 0 0 0 0 0 0 0 0 0 0 0 0 0 0 0 0 0 0 0 0 0 0 0 0 0 1 2
65 65 71 76 66 46 24 9 3 2 2 2 2 1 0 0 0 0 0 0 0 0 0 0 0 0 0 0 0 0 0 0 0 0 0 1 1 0 0 0 0 1 1
60 55 61 71 67 52 33 18 10 8 8 7 3 1 1 0 0 0 0 0 0 0 0 0 0 0 0 0 0 0 0 0 0 0 1 3 2 1 0 0 0 0 0
54 47 48 57 58 49 37 27 21 17 14 10 6 3 2 1 0 0 0 0 0 0 0 0 0 0 0 0 0 0 0 0 0 0 1 3 4 3 2 0 0 0 0
48 39 33 37 42 40 35 30 27 22 16 11 8 6 3 1 0 0 0 0 0 0 0 0 0 0 0 0 0 0 0 0 0 0 1 2 4 6 4 1 0 0 0
42 32 21 21 26 27 26 24 22 18 13 9 7 5 3 1 0 0 0 0 0 0 0 0 0 0 0 0 0 0 0 0 0 0 0 2 5 6 4 1 1 1 0
39 27 14 12 15 16 16 16 14 11 8 5 3 2 1 0 0 0 0 0 0 0 0 0 0 0 0 0 0 0 0 0 0 0 1 5 8 6 2 1 2 1 0
39 25 9 5 7 9 12 13 9 5 3 1 0 0 0 0 0 0 0 1 1 0 0 0 0 0 0 0 0 0 0 0 0 0 3 10 13 8 2 1 2 1 0
37 22 8 3 3 6 11 11 7 2 0 0 1 1 0 0 0 0 0 1 1 0 0 0 0 0 0 0 0 0 0 0 0 1 7 16 19 13 5 2 2 1 0
31 21 12 9 9 13 16 12 5 1 0 1 1 1 1 1 0 0 2 3 3 2 2 1 1 1 2 1 0 0 0 0 1 3 11 21 24 19 11 5 3 1 0
33 26 21 22 24 29 30 22 10 5 4 3 2 2 1 1 1 1 5 9 9 8 9 8 7 10 10 7 2 0 0 1 2 5 11 22 28 26 19 11 5 2 1
49 42 38 42 45 47 46 37 22 14 11 9 10 8 3 3 5 9 15 20 18 19 22 23 24 29 26 17 8 3 3 5 7 7 10 19 29 33 30 22 14 8 5
71 65 60 61 65 64 57 46 32 22 18 21 26 26 18 16 23 30 34 35 33 34 41 45 47 50 45 32 23 17 15 15 14 11 12 18 24 32 37 34 27 20 16
87 84 76 71 75 76 66 53 40 32 33 40 49 52 45 42 49 57 57 54 55 57 61 65 66 67 61 50 41 36 33 30 24 19 18 18 19 23 32 36 35 32 27
96 93 84 78 79 79 73 65 56 51 55 62 69 73 71 67 69 75 75 74 75 76 77 76 77 75 67 56 45 39 39 37 32 27 23 20 18 19 21 24 29 32 30
97 95 88 83 82 80 78 77 73 70 73 77 78 80 81 80 81 83 84 83 83 82 79 77 73 66 57 46 34 29 30 29 26 23 20 17 17 17 13 11 15 21 23
96 93 87 84 84 84 84 84 81 79 78 78 75 74 76 78 80 81 80 78 76 73 68 63 55 46 39 32 25 20 18 15 12 11 10 9 10 10 7 5 5 8 10
95 92 87 86 87 88 88 86 83 80 78 74 67 62 61 62 63 64 66 65 60 55 49 42 36 30 25 22 18 14 9 4 2 2 2 3 3 3 2 1 1 1 2
88 88 87 86 87 89 87 85 81 79 78 71 58 48 42 39 39 41 43 42 38 35 32 27 24 21 18 14 10 7 4 1 0 0 0 0 0 0 0 0 0 0 0
75 76 78 78 81 84 84 81 78 76 71 59 45 33 25 21 20 20 21 21 19 19 19 17 15 14 11 7 4 3 2 1 0 0 0 0 0 0 0 0 0 0 0
61 62 64 66 70 74 76 74 72 67 54 41 29 20 15 12 10 9 9 9 9 10 10 10 9 8 6 3 1 0 1 1 0 0 0 0 0 0 0 0 0 0 0
53 54 56 58 62 66 68 69 67 58 43 31 21 14 10 8 6 6 6 6 6 6 6 5 5 4 2 1 0 0 0 0 0 0 0 0 0 0 0 0 0 0 0

GEFSSE_con_probscp_066.txt.gz
Probability
0 1 1 1 2 1 0 0 0 0 0 0 0 0 0 0 1 3 3 3 2 2 1 0 0 0 0 0 0 0 0 0 0 0 0 0 0 0 0 0 0 0 0
4 4 4 3 2 1 0 0 0 0 1 1 1 1 1 1 2 2 2 2 1 1 0 0 0 0 0 0 0 0 0 0 0 0 0 0 0 0 0 0 0 0 0
12 10 8 7 4 1 0 0 0 0 1 2 2 2 2 2 2 1 1 1 0 0 0 0 0 0 0 0 0 0 0 0 0 0 0 0 0 0 0 0 0 0 0
20 16 11 10 8 3 1 1 0 0 1 1 1 1 1 1 1 0 0 0 0 0 0 0 0 0 0 0 0 0 0 0 0 0 0 0 0 0 0 0 0 0 0
26 20 15 15 13 7 4 3 1 0 0 0 0 0 0 0 0 0 0 0 0 0 0 0 0 0 0 0 0 0 0 0 0 0 0 0 0 0 0 0 0 0 0
30 23 19 19 16 12 8 5 3 1 0 0 0 0 0 0 0 0 0 0 0 0 0 0 0 0 0 0 0 0 0 0 0 0 0 0 0 0 0 0 0 0 0
32 25 19 18 17 14 12 9 6 3 1 0 0 0 0 0 0 0 0 0 0 0 0 0 0 0 0 0 0 0 0 0 0 0 0 0 0 1 1 1 1 1 1
36 28 20 16 14 14 15 14 10 6 3 1 0 0 0 0 0 0 0 0 0 0 0 0 0 0 0 0 0 0 0 0 0 0 0 0 0 1 1 1 2 2 2
38 32 23 15 12 12 14 15 13 9 5 2 0 0 0 0 0 0 0 0 0 0 0 0 0 0 0 0 0 0 0 0 0 0 0 0 0 0 0 1 2 3 3
35 33 26 17 13 11 12 13 12 9 6 3 1 0 0 0 0 0 0 0 0 0 0 0 0 0 0 0 0 0 0 0 0 0 0 0 0 1 0 0 2 3 3
30 30 26 20 16 14 13 12 10 8 6 4 3 1 0 0 0 0 0 0 0 0 0 0 0 0 0 0 0 0 0 0 0 0 0 0 1 2 1 1 2 3 3
28 26 22 20 18 17 16 15 12 8 6 4 4 2 0 0 0 0 0 0 0 0 0 0 0 0 0 0 0 0 0 0 0 0 0 2 4 5 3 3 3 3 3
29 25 19 17 16 16 17 18 15 9 5 4 3 1 0 0 0 0 0 0 0 0 0 0 0 0 0 0 0 0 0 0 0 0 2 6 9 9 8 6 5 3 3
29 26 19 14 12 13 14 15 13 9 5 2 1 0 0 0 0 0 0 0 0 0 0 0 0 0 0 0 0 0 0 0 0 0 4 12 17 16 13 10 7 5 3
32 27 21 15 11 9 9 9 8 5 3 1 0 0 0 0 0 0 0 0 0 0 0 0 0 0 0 0 0 0 0 0 0 0 5 17 24 24 20 18 15 11 7
37 30 22 15 10 7 5 3 2 2 1 0 0 0 0 0 0 0 0 0 0 0 0 0 0 0 0 0 1 1 1 0 0 1 7 18 25 26 26 28 28 23 17
47 36 23 14 10 9 5 2 1 0 0 0 0 0 0 0 0 0 0 0 0 0 0 0 0 0 0 0 1 2 1 1 1 2 7 15 20 21 24 29 35 34 29
61 49 35 28 24 21 15 8 3 2 1 1 0 0 0 0 0 0 1 1 1 0 0 0 0 0 0 0 1 1 1 1 2 3 5 9 12 12 14 20 28 32 32
73 65 58 54 50 45 36 24 15 11 9 5 3 2 2 2 1 1 2 3 2 1 0 0 0 0 0 0 0 0 0 0 1 2 3 3 4 5 6 10 16 21 22
79 75 72 72 70 65 57 48 36 27 20 14 9 6 5 6 4 2 2 4 4 4 2 0 0 0 0 0 0 0 0 0 0 1 1 1 1 2 2 3 6 8 10
74 72 73 75 75 72 68 63 53 39 27 20 14 11 10 9 7 4 3 4 4 5 3 1 0 0 0 0 1 1 0 0 0 0 0 0 0 0 0 1 1 2 2
60 60 63 68 70 71 69 63 53 41 30 21 15 12 11 11 9 7 6 4 4 4 3 1 0 0 0 0 1 1 0 0 0 0 0 0 0 0 0 0 0 0 0
47 46 48 53 60 65 65 59 49 40 31 23 15 10 9 9 8 8 7 5 4 3 3 2 2 1 1 0 1 1 0 0 0 0 0 0 0 0 0 0 0 0 0
36 35 33 35 43 51 55 53 47 37 28 21 13 8 5 5 5 5 5 5 4 3 2 2 3 2 1 0 0 0 0 0 0 0 0 0 0 0 0 0 0 0 0
24 25 23 24 28 34 40 43 38 29 20 14 9 6 4 3 3 3 3 3 2 1 1 1 2 2 1 0 0 0 0 0 0 0 0 0 0 0 0 0 0 0 0
15 19 20 20 23 27 30 32 28 21 14 10 7 4 3 3 3 3 3 1 0 0 0 0 1 1 1 0 0 0 0 0 0 0 0 0 0 0 0 0 0 0 0

GEFSSE_con_probscp_072.txt.gz
Probability
2 2 3 3 4 7 10 14 17 15 10 6 6 6 5 3 2 1 0 0 0 0 0 0 0 0 0 0 0 0 0 0 0 0 0 0 0 0 0 0 0 0 0
2 3 3 4 6 9 11 15 18 17 13 10 8 8 6 2 1 0 0 0 0 0 0 0 0 0 0 0 0 0 0 0 0 0 0 0 0 0 0 0 0 0 0
5 4 3 4 7 10 12 15 17 17 14 11 10 9 6 2 0 0 0 0 0 0 0 0 0 0 0 0 0 0 0 0 0 0 0 0 0 0 0 0 0 0 0
10 8 4 3 6 10 13 15 15 13 11 10 9 8 6 3 1 0 0 0 0 0 0 0 0 0 0 0 0 0 0 0 0 0 0 0 0 0 1 1 1 0 0
17 12 6 5 8 12 15 16 15 14 11 9 8 8 6 4 2 1 0 0 0 0 0 0 0 0 0 0 0 0 0 0 0 0 0 0 0 0 1 2 2 0 0
24 16 10 10 13 17 20 21 22 21 17 13 9 7 5 3 2 1 0 0 0 0 0 0 0 0 0 0 0 0 0 0 0 0 0 0 0 0 1 2 1 0 0
29 22 16 16 18 21 25 30 31 30 26 20 13 8 5 3 3 1 0 0 0 0 0 0 0 0 0 0 0 0 0 0 0 0 0 0 0 1 2 1 0 0 0
33 30 27 24 21 23 29 35 38 38 34 25 17 10 5 3 3 2 1 0 0 0 0 0 0 0 0 0 0 0 0 0 0 0 0 0 0 2 2 1 0 0 0
41 40 37 31 26 25 29 33 39 41 36 26 17 10 5 3 3 3 1 0 0 0 0 0 0 0 0 0 0 0 0 0 0 0 0 0 0 1 1 1 0 0 0
43 45 43 36 30 28 27 27 30 33 29 20 12 8 5 4 3 3 2 0 0 0 0 0 0 0 0 0 0 0 0 0 0 0 0 0 0 1 1 1 0 0 0
38 42 42 37 31 28 27 25 26 26 22 14 8 7 6 4 2 2 1 0 0 0 0 0 0 0 0 0 0 0 0 0 0 0 0 0 1 2 2 1 0 0 0
32 36 38 34 30 29 30 31 31 30 23 14 9 7 4 2 1 1 0 0 0 0 0 0 0 0 0 0 0 0 0 0 0 0 0 0 1 3 4 3 2 1 0
25 30 33 31 29 30 33 36 36 35 29 18 11 6 2 0 0 0 0 0 0 0 0 0 0 0 0 0 0 0 0 0 0 0 0 0 2 5 7 7 6 4 2
21 25 30 29 28 30 32 34 34 34 29 21 12 6 1 0 0 0 0 0 0 0 0 0 0 0 0 0 0 0 0 0 0 0 0 2 5 9 12 13 12 9 7
24 25 30 32 29 28 29 29 29 29 25 19 12 5 1 0 0 0 0 0 0 0 0 0 0 0 0 0 0 0 0 0 0 0 0 3 8 14 18 18 17 14 10
27 28 32 34 31 28 28 26 25 24 21 15 9 4 1 0 0 0 0 0 0 0 0 0 0 0 0 0 0 0 0 0 0 0 0 1 5 13 20 22 20 15 11
29 32 34 33 30 27 25 23 21 19 15 10 5 3 1 0 0 0 0 0 0 0 0 0 0 0 0 0 0 0 0 0 0 0 0 0 2 7 14 19 19 16 12
34 38 41 38 32 26 23 20 18 14 9 4 2 1 0 0 0 0 1 1 0 0 0 0 0 0 0 0 0 0 0 0 0 0 0 0 1 3 6 10 13 13 10
40 44 46 44 38 31 26 21 17 12 5 1 0 0 1 1 1 1 1 1 0 0 0 0 0 0 0 0 0 0 0 0 0 0 0 0 0 1 1 3 6 6 6
43 45 47 45 42 40 35 25 17 9 3 0 0 0 1 2 1 1 1 1 1 0 0 0 0 0 0 0 0 0 0 0 0 0 0 0 0 0 0 1 2 3 3
46 46 47 44 42 43 40 29 18 10 4 1 0 0 1 2 1 1 1 2 1 1 1 1 1 1 0 0 0 0 0 0 0 0 0 0 0 0 0 0 1 1 1
47 46 45 44 42 41 37 29 20 13 6 2 1 1 0 0 0 0 1 1 1 1 2 2 2 1 0 0 0 0 0 0 0 0 0 0 0 0 0 0 0 0 0
39 39 40 40 40 37 31 25 20 15 9 5 3 1 0 0 0 0 0 0 0 1 1 1 1 1 0 0 0 0 0 0 0 0 0 0 0 0 0 0 0 0 0
26 28 29 31 33 31 26 22 19 16 11 7 4 2 0 0 0 0 0 0 0 0 0 0 0 0 0 0 0 0 0 0 0 0 0 0 0 0 0 0 0 0 0
18 19 21 23 25 24 20 18 17 15 11 7 4 2 1 0 0 0 1 0 0 0 0 0 0 0 0 0 0 0 0 0 0 0 0 0 0 0 0 0 0 0 0
13 15 18 20 20 19 16 15 14 12 8 5 4 3 2 1 0 0 1 0 0 0 0 0 0 0 0 0 0 0 0 0 0 0 0 0 0 0 0 0 0 0 0

GEFSSE_con_probscp_078.txt.gz
Probability
8 18 26 19 9 4 1 1 1 1 1 1 0 0 0 0 0 0 0 0 0 0 0 0 0 0 0 0 0 0 0 0 0 0 0 0 0 0 0 0 0 0 0
19 30 36 29 18 9 4 4 5 5 4 2 1 1 0 0 0 0 0 0 0 0 0 0 0 0 0 0 0 0 0 0 0 0 0 0 0 0 0 0 0 0 0
35 42 45 44 38 25 17 18 22 21 16 10 6 3 1 0 0 0 0 0 0 0 0 0 0 0 0 0 0 0 0 0 0 0 0 0 0 0 0 0 0 0 0
42 49 55 60 60 50 40 41 46 45 37 28 18 10 5 1 0 0 0 0 0 0 0 0 0 0 0 0 0 0 0 0 0 0 0 0 0 0 0 0 0 0 0
45 54 66 72 73 67 60 57 59 59 53 46 36 24 12 4 0 0 0 0 0 0 0 0 0 0 0 0 0 0 0 0 0 0 0 0 0 0 0 0 0 0 0
46 55 69 78 77 72 66 62 62 62 60 56 47 34 21 10 3 2 1 0 0 0 0 0 0 0 0 0 0 0 0 0 0 0 0 0 0 0 0 0 0 0 0
49 53 65 75 74 68 64 63 64 65 64 60 51 38 25 15 9 5 2 1 0 0 0 0 0 0 0 0 0 0 0 0 0 0 0 0 0 0 0 1 1 1 1
51 54 62 66 64 61 62 63 66 67 67 63 52 37 25 17 11 7 4 2 1 0 0 0 0 0 0 0 0 0 0 0 0 0 0 0 0 0 0 1 2 2 2
46 52 57 54 52 52 54 58 63 66 67 64 52 36 23 14 8 5 5 4 2 1 0 1 1 0 0 0 0 0 0 0 0 0 0 0 0 0 0 1 2 3 4
42 48 52 50 46 42 42 47 54 59 61 58 49 35 20 9 4 2 4 5 4 1 0 1 1 1 0 0 0 0 0 0 0 0 0 1 1 0 0 0 1 3 4
48 51 53 53 48 39 37 40 43 45 45 40 35 27 15 5 1 2 5 7 5 1 1 1 2 1 0 0 0 0 0 0 0 0 1 3 3 1 0 0 0 1 3
60 58 57 56 54 47 44 46 39 33 29 23 20 18 12 7 5 4 8 9 5 2 2 2 2 1 0 0 0 0 0 0 0 0 1 3 3 1 0 0 1 1 2
62 59 56 57 57 55 55 55 46 37 32 25 23 23 20 19 13 8 7 7 4 2 1 2 2 1 1 1 0 0 0 0 0 0 1 1 1 0 0 1 2 4 5
54 52 51 54 58 62 63 62 57 52 46 41 43 41 35 29 22 14 10 7 4 1 1 2 2 2 1 1 0 0 0 0 0 0 0 1 1 1 1 2 3 6 7
47 46 48 54 62 69 72 70 68 66 60 56 56 53 43 34 28 24 19 13 6 3 3 3 3 2 1 1 0 0 0 0 1 0 0 1 2 3 4 5 5 6 8
55 54 54 58 65 73 76 75 73 73 68 62 59 55 45 37 34 32 25 17 9 7 8 7 5 3 1 1 1 0 0 0 0 0 1 3 5 6 7 8 8 7 6
65 64 61 57 59 67 73 72 71 71 68 64 61 56 48 41 42 39 30 21 16 16 18 16 12 8 5 4 3 3 2 3 3 3 4 6 7 8 8 9 9 8 7
69 68 63 54 51 58 66 68 68 68 68 66 63 57 51 49 49 48 40 31 27 29 28 25 20 16 13 9 8 7 7 7 7 7 8 8 9 9 8 8 8 8 9
67 68 64 56 51 56 63 66 67 69 70 66 61 57 55 54 53 51 47 39 36 36 32 28 27 25 19 13 9 9 9 9 9 9 9 10 9 8 7 6 5 6 7
62 63 60 55 54 58 63 65 64 66 67 62 57 56 55 53 52 53 50 44 41 39 35 32 32 29 21 14 9 9 9 8 8 9 10 10 8 5 4 3 2 3 3
58 56 51 50 52 56 59 60 59 59 57 52 49 48 48 47 49 50 49 47 45 43 40 35 32 27 20 16 15 13 11 9 9 9 9 7 5 3 2 1 1 1 1
57 53 49 48 51 53 52 53 53 50 45 40 37 36 36 38 40 40 40 41 41 39 36 31 28 25 21 18 19 18 13 10 8 5 4 3 2 2 2 1 0 0 0
53 52 51 51 52 53 51 50 48 43 37 32 26 23 22 24 25 26 28 30 29 26 24 23 23 23 21 18 17 16 13 9 6 3 1 1 1 2 2 1 0 0 0
47 50 52 53 53 52 52 50 46 39 32 25 18 13 13 14 14 13 15 17 17 15 14 14 15 16 17 16 13 12 10 7 5 4 1 0 0 1 1 0 0 0 0
44 46 50 53 54 52 51 49 46 37 26 18 13 9 9 9 8 6 6 8 9 9 8 8 8 9 11 11 9 8 7 5 4 3 2 1 0 0 0 0 0 0 0
43 43 46 51 53 53 51 48 44 34 21 14 11 9 9 9 7 5 4 6 6 6 6 6 6 7 8 8 6 5 6 5 2 2 2 1 0 0 0 0 0 0 0

GEFSSE_con_probscp_084.txt.gz
Probability
58 60 59 44 22 8 3 1 0 0 0 0 0 0 0 0 0 0 0 0 0 0 0 0 0 0 0 0 0 0 0 0 0 0 0 0 0 0 0 0 0 0 0
70 69 65 51 30 13 3 1 1 0 0 0 0 0 0 0 0 0 0 0 0 0 0 0 0 0 0 0 0 0 0 0 0 0 0 0 0 0 0 0 0 0 0
79 74 69 61 44 22 7 2 1 0 0 0 0 0 0 0 0 0 0 0 0 0 0 0 0 0 0 0 0 0 0 0 0 0 0 0 0 0 0 0 0 0 0
76 72 71 70 58 38 18 6 2 1 0 0 0 1 1 0 0 0 0 0 0 0 0 0 0 0 0 0 0 0 0 0 0 0 0 0 0 0 0 0 0 0 0
70 72 77 79 72 58 37 17 8 6 4 2 2 4 3 1 0 0 0 0 0 0 0 0 0 0 0 0 0 0 0 0 0 0 0 0 0 0 0 0 0 0 0
68 74 82 85 83 74 58 39 25 19 14 8 6 6 5 3 2 0 0 0 0 0 0 0 0 0 0 0 0 0 0 0 0 0 0 0 0 0 0 0 0 0 0
71 76 83 86 86 83 75 61 46 39 32 22 14 11 9 8 5 2 1 1 0 0 0 0 0 0 0 0 0 0 0 0 0 0 0 0 0 0 0 0 0 0 0
72 78 83 85 84 82 79 73 64 56 48 40 30 22 16 13 8 4 2 2 1 0 0 0 0 0 0 0 0 0 0 0 0 0 0 0 0 0 0 0 0 0 0
71 76 81 80 77 74 74 75 72 65 58 51 43 31 21 14 9 4 3 2 1 0 0 0 0 0 0 0 0 0 0 0 0 0 0 0 0 0 0 0 0 0 0
72 74 74 71 68 64 63 68 71 68 61 51 39 28 19 12 7 3 2 2 1 0 0 0 0 0 0 0 0 0 0 0 0 0 0 0 0 0 0 0 0 0 0
74 70 61 56 56 52 52 60 64 60 53 41 27 18 14 7 3 2 3 5 2 0 0 0 0 0 0 0 0 0 0 0 0 0 0 1 1 1 1 0 0 0 0
72 63 48 44 47 44 47 59 57 47 39 28 17 12 8 4 3 6 12 14 6 0 0 0 0 0 0 0 0 0 0 0 0 0 2 4 3 2 2 1 0 0 0
69 59 46 45 47 45 52 62 54 44 37 26 20 19 11 4 6 15 24 21 9 2 1 1 0 0 0 0 0 0 0 0 0 1 4 7 6 3 2 1 1 1 1
72 63 53 54 54 53 61 65 54 48 45 38 38 36 22 10 12 23 30 22 9 3 2 2 1 0 1 1 0 0 0 1 1 1 6 10 10 7 6 5 4 4 4
79 72 63 62 63 63 68 69 58 54 51 51 55 50 33 20 20 31 35 25 11 6 7 5 2 1 3 4 3 2 3 4 5 6 8 12 15 14 11 9 9 8 7
83 78 72 70 70 71 73 72 65 60 59 61 63 57 41 32 35 42 43 33 19 17 20 16 10 9 10 10 7 5 7 10 11 13 12 13 16 14 11 9 8 8 8
82 80 78 75 74 74 74 73 68 66 66 68 67 62 51 46 50 54 51 42 32 33 38 34 25 22 23 20 14 11 11 13 17 19 16 12 10 7 5 4 4 5 7
80 81 79 77 77 76 75 74 71 69 69 70 68 64 55 50 55 59 55 49 45 45 45 41 34 32 32 27 20 15 15 16 18 19 15 11 7 5 3 1 1 3 6
76 77 76 77 78 76 74 74 72 69 68 68 64 60 53 49 51 56 56 55 55 52 45 39 37 37 34 28 18 14 15 17 16 15 14 11 9 8 5 2 1 1 2
73 73 73 75 76 74 71 70 70 67 63 61 57 54 53 50 50 52 55 57 58 55 46 40 37 34 30 24 13 9 12 13 12 12 12 10 9 8 5 3 2 1 1
71 72 72 72 72 70 65 63 64 61 54 51 49 50 52 52 50 49 52 56 58 56 49 41 35 29 24 20 13 7 7 8 8 8 8 8 7 5 4 4 3 2 2
67 68 69 68 66 64 59 54 53 50 43 39 38 40 43 46 46 45 46 51 54 52 46 40 34 27 20 16 13 8 5 4 3 4 4 5 4 3 3 2 1 1 1
58 60 62 61 61 59 53 46 41 37 32 27 26 27 30 33 36 36 35 38 41 40 36 34 31 25 17 12 10 7 4 3 1 1 1 2 1 1 1 1 0 0 0
48 50 53 55 56 56 50 43 36 29 23 19 18 18 19 20 22 22 22 23 25 25 24 21 20 18 14 9 7 5 5 3 1 0 0 0 0 0 0 0 0 0 0
40 42 44 48 51 51 49 45 38 28 18 14 11 12 12 12 12 12 12 13 13 14 14 12 12 13 12 9 6 5 5 4 2 0 0 0 0 0 0 0 0 0 0
37 37 39 42 45 47 47 45 40 28 17 10 7 7 8 9 9 9 8 8 8 9 9 10 10 11 11 9 7 5 4 4 2 1 0 0 0 0 0 0 0 0 0